Time,TemperatureF,DewpointF,PressureIn,WindDirection,WindDirectionDegrees,WindSpeedMPH,WindSpeedGustMPH,Humidity,HourlyPrecipIn,Conditions,Clouds,dailyrainin,SoftwareType,DateUTC
2013-01-24 00:01:00,54.0,37.0,30.12,South,189,2.0,12.0,52,0.00,,,0.00,,2013-01-24 08:01:00,
2013-01-24 00:11:00,54.0,37.0,30.12,South,189,2.0,12.0,52,0.00,,,0.00,,2013-01-24 08:11:00,
2013-01-24 00:22:00,53.0,35.0,30.11,South,184,5.0,9.0,51,0.00,,,0.00,,2013-01-24 08:22:00,
2013-01-24 00:32:00,54.0,36.0,30.11,SSW,198,6.0,13.0,51,0.00,,,0.00,,2013-01-24 08:32:00,
2013-01-24 00:42:00,54.0,36.0,30.11,SSW,198,6.0,13.0,51,0.00,,,0.00,,2013-01-24 08:42:00,
2013-01-24 00:53:00,53.0,37.0,30.11,WNW,287,7.0,10.0,54,0.00,,,0.00,,2013-01-24 08:53:00,
2013-01-24 01:02:00,53.0,37.0,30.11,WNW,293,4.0,8.0,54,0.00,,,0.00,,2013-01-24 09:02:00,
2013-01-24 01:12:00,53.0,37.0,30.11,WNW,293,4.0,8.0,54,0.00,,,0.00,,2013-01-24 09:12:00,
2013-01-24 01:22:00,52.0,35.0,30.11,WNW,283,6.0,10.0,53,0.00,,,0.00,,2013-01-24 09:22:00,
2013-01-24 01:32:00,51.0,34.0,30.11,NW,305,5.0,8.0,52,0.00,,,0.00,,2013-01-24 09:32:00,
2013-01-24 01:42:00,51.0,34.0,30.11,NW,305,5.0,8.0,52,0.00,,,0.00,,2013-01-24 09:42:00,
2013-01-24 01:53:00,51.0,34.0,30.10,WNW,295,6.0,9.0,51,0.00,,,0.00,,2013-01-24 09:53:00,
2013-01-24 02:02:00,51.0,34.0,30.10,WNW,296,7.0,11.0,52,0.00,,,0.00,,2013-01-24 10:02:00,
2013-01-24 02:11:00,51.0,34.0,30.10,WNW,296,7.0,11.0,52,0.00,,,0.00,,2013-01-24 10:11:00,
2013-01-24 02:22:00,51.0,34.0,30.10,SW,235,3.0,8.0,52,0.00,,,0.00,,2013-01-24 10:22:00,
2013-01-24 02:32:00,51.0,34.0,30.10,South,173,5.0,10.0,51,0.00,,,0.00,,2013-01-24 10:32:00,
2013-01-24 02:42:00,51.0,34.0,30.10,South,173,5.0,10.0,51,0.00,,,0.00,,2013-01-24 10:42:00,
2013-01-24 02:52:00,51.0,35.0,30.10,SSE,168,6.0,11.0,54,0.00,,,0.00,,2013-01-24 10:52:00,
2013-01-24 03:02:00,51.0,37.0,30.10,South,182,9.0,14.0,58,0.00,,,0.00,,2013-01-24 11:02:00,
2013-01-24 03:11:00,51.0,37.0,30.10,South,182,9.0,14.0,58,0.00,,,0.00,,2013-01-24 11:11:00,
2013-01-24 03:22:00,51.0,39.0,30.09,SE,135,13.0,19.0,63,0.00,,,0.00,,2013-01-24 11:22:00,
2013-01-24 03:32:00,52.0,40.0,30.08,SSE,149,11.0,24.0,64,0.00,,,0.00,,2013-01-24 11:32:00,
2013-01-24 03:42:00,52.0,40.0,30.08,SSE,149,11.0,24.0,64,0.00,,,0.00,,2013-01-24 11:42:00,
2013-01-24 03:53:00,51.0,38.0,30.08,ENE,62,4.0,14.0,62,0.00,,,0.00,,2013-01-24 11:53:00,
2013-01-24 04:02:00,50.0,39.0,30.07,North,0,0.0,2.0,65,0.00,,,0.00,,2013-01-24 12:02:00,
2013-01-24 04:12:00,50.0,39.0,30.07,North,0,0.0,2.0,65,0.00,,,0.00,,2013-01-24 12:12:00,
2013-01-24 04:22:00,50.0,39.0,30.07,North,0,0.0,2.0,66,0.00,,,0.00,,2013-01-24 12:22:00,
2013-01-24 04:32:00,49.0,40.0,30.08,ENE,70,1.0,3.0,71,0.00,,,0.00,,2013-01-24 12:32:00,
2013-01-24 04:42:00,49.0,40.0,30.08,ENE,70,1.0,3.0,71,0.00,,,0.00,,2013-01-24 12:42:00,
2013-01-24 04:53:00,49.0,42.0,30.08,ENE,70,2.0,4.0,76,0.00,,,0.00,,2013-01-24 12:53:00,
2013-01-24 05:02:00,49.0,41.0,30.08,SW,234,3.0,6.0,75,0.00,,,0.00,,2013-01-24 13:02:00,
2013-01-24 05:12:00,49.0,41.0,30.08,SW,234,3.0,6.0,75,0.00,,,0.00,,2013-01-24 13:12:00,
2013-01-24 05:22:00,49.0,41.0,30.09,SW,232,4.0,6.0,74,0.00,,,0.00,,2013-01-24 13:22:00,
2013-01-24 05:32:00,49.0,41.0,30.09,SSW,213,2.0,5.0,73,0.00,,,0.00,,2013-01-24 13:32:00,
2013-01-24 05:42:00,49.0,41.0,30.09,SSW,213,2.0,5.0,73,0.00,,,0.00,,2013-01-24 13:42:00,
2013-01-24 05:53:00,49.0,42.0,30.09,SSW,195,1.0,3.0,76,0.00,,,0.00,,2013-01-24 13:53:00,
2013-01-24 06:02:00,49.0,43.0,30.10,North,0,0.0,5.0,81,0.00,,,0.00,,2013-01-24 14:02:00,
2013-01-24 06:11:00,49.0,43.0,30.10,North,0,0.0,5.0,81,0.00,,,0.00,,2013-01-24 14:11:00,
2013-01-24 06:22:00,48.0,43.0,30.11,North,0,0.0,4.0,83,0.00,,,0.00,,2013-01-24 14:22:00,
2013-01-24 06:32:00,47.0,44.0,30.10,ESE,122,3.0,8.0,88,0.01,,,0.01,,2013-01-24 14:32:00,
2013-01-24 06:42:00,47.0,44.0,30.10,ESE,122,3.0,8.0,88,0.01,,,0.01,,2013-01-24 14:42:00,
2013-01-24 06:53:00,47.0,44.0,30.10,SE,135,6.0,9.0,89,0.01,,,0.01,,2013-01-24 14:53:00,
2013-01-24 07:02:00,47.0,44.0,30.09,SSE,163,5.0,10.0,89,0.01,,,0.01,,2013-01-24 15:02:00,
2013-01-24 07:12:00,47.0,44.0,30.09,SSE,163,5.0,10.0,89,0.01,,,0.01,,2013-01-24 15:12:00,
2013-01-24 07:22:00,47.0,44.0,30.10,South,172,9.0,14.0,90,0.01,,,0.01,,2013-01-24 15:22:00,
2013-01-24 07:32:00,47.0,44.0,30.10,South,172,9.0,14.0,90,0.01,,,0.01,,2013-01-24 15:32:00,
2013-01-24 07:42:00,47.0,44.0,30.11,South,173,8.0,13.0,90,0.00,,,0.01,,2013-01-24 15:42:00,
2013-01-24 07:53:00,47.0,45.0,30.11,South,175,8.0,12.0,91,0.00,,,0.01,,2013-01-24 15:53:00,
2013-01-24 08:02:00,47.0,45.0,30.12,South,178,7.0,12.0,91,0.00,,,0.01,,2013-01-24 16:02:00,
2013-01-24 08:11:00,47.0,45.0,30.12,South,178,7.0,12.0,91,0.00,,,0.01,,2013-01-24 16:11:00,
2013-01-24 08:22:00,48.0,45.0,30.13,South,173,8.0,11.0,91,0.00,,,0.01,,2013-01-24 16:22:00,
2013-01-24 08:32:00,48.0,46.0,30.12,South,175,4.0,7.0,92,0.00,,,0.01,,2013-01-24 16:32:00,
2013-01-24 08:42:00,48.0,46.0,30.12,South,175,4.0,7.0,92,0.00,,,0.01,,2013-01-24 16:42:00,
2013-01-24 09:01:00,48.0,46.0,30.13,South,174,1.0,5.0,93,0.00,,,0.01,,2013-01-24 17:01:00,
2013-01-24 09:11:00,48.0,46.0,30.13,South,174,1.0,5.0,93,0.00,,,0.01,,2013-01-24 17:11:00,
2013-01-24 09:21:00,48.0,46.0,30.14,North,0,0.0,2.0,93,0.00,,,0.01,,2013-01-24 17:21:00,
2013-01-24 09:31:00,49.0,47.0,30.15,SSE,147,3.0,5.0,92,0.00,,,0.01,,2013-01-24 17:31:00,
2013-01-24 09:42:00,49.0,47.0,30.15,SSE,147,3.0,5.0,92,0.00,,,0.01,,2013-01-24 17:42:00,
2013-01-24 09:52:00,49.0,47.0,30.15,North,0,0.0,0.0,93,0.00,,,0.01,,2013-01-24 17:52:00,
2013-01-24 10:01:00,49.0,47.0,30.16,North,0,0.0,5.0,94,0.00,,,0.01,,2013-01-24 18:01:00,
2013-01-24 10:11:00,50.0,48.0,30.16,SSE,147,2.0,5.0,94,0.00,,,0.01,,2013-01-24 18:11:00,
2013-01-24 10:21:00,50.0,48.0,30.16,SSE,147,2.0,5.0,94,0.00,,,0.01,,2013-01-24 18:21:00,
2013-01-24 10:31:00,50.0,48.0,30.17,ESE,105,3.0,6.0,94,0.00,,,0.01,,2013-01-24 18:31:00,
2013-01-24 10:41:00,50.0,48.0,30.17,ESE,105,3.0,6.0,94,0.00,,,0.01,,2013-01-24 18:41:00,
2013-01-24 10:53:00,49.0,47.0,30.17,ESE,104,3.0,5.0,94,0.01,,,0.02,,2013-01-24 18:53:00,
2013-01-24 11:01:00,49.0,47.0,30.16,ESE,109,6.0,9.0,94,0.04,,,0.05,,2013-01-24 19:01:00,
2013-01-24 11:11:00,50.0,49.0,30.16,East,96,3.0,6.0,96,0.04,,,0.05,,2013-01-24 19:11:00,
2013-01-24 11:21:00,50.0,49.0,30.16,East,96,3.0,6.0,96,0.04,,,0.05,,2013-01-24 19:21:00,
2013-01-24 11:32:00,49.0,48.0,30.16,East,99,5.0,7.0,96,0.04,,,0.05,,2013-01-24 19:32:00,
2013-01-24 11:41:00,50.0,49.0,30.16,North,0,0.0,4.0,97,0.03,,,0.05,,2013-01-24 19:41:00,
2013-01-24 11:52:00,50.0,49.0,30.16,North,0,0.0,4.0,97,0.03,,,0.05,,2013-01-24 19:52:00,
2013-01-24 12:01:00,50.0,49.0,30.16,East,84,1.0,3.0,97,0.01,,,0.05,,2013-01-24 20:01:00,
2013-01-24 12:11:00,50.0,49.0,30.15,North,0,0.0,3.0,97,0.00,,,0.05,,2013-01-24 20:11:00,
2013-01-24 12:21:00,50.0,49.0,30.15,North,0,0.0,3.0,97,0.00,,,0.05,,2013-01-24 20:21:00,
2013-01-24 12:32:00,51.0,50.0,30.14,North,0,0.0,3.0,98,0.00,,,0.05,,2013-01-24 20:32:00,
2013-01-24 12:42:00,53.0,52.0,30.13,East,84,2.0,4.0,98,0.00,,,0.05,,2013-01-24 20:42:00,
2013-01-24 12:52:00,53.0,52.0,30.13,East,84,2.0,4.0,98,0.00,,,0.05,,2013-01-24 20:52:00,
2013-01-24 13:01:00,51.0,50.0,30.13,ENE,60,2.0,6.0,97,0.00,,,0.05,,2013-01-24 21:01:00,
2013-01-24 13:11:00,51.0,50.0,30.10,North,0,0.0,4.0,97,0.00,,,0.05,,2013-01-24 21:11:00,
2013-01-24 13:21:00,51.0,50.0,30.10,North,0,0.0,4.0,97,0.00,,,0.05,,2013-01-24 21:21:00,
2013-01-24 13:32:00,52.0,51.0,30.10,ENE,63,2.0,4.0,98,0.00,,,0.05,,2013-01-24 21:32:00,
2013-01-24 13:42:00,52.0,51.0,30.10,ENE,63,2.0,4.0,98,0.00,,,0.05,,2013-01-24 21:42:00,
2013-01-24 13:52:00,52.0,51.0,30.11,ENE,65,1.0,4.0,97,0.01,,,0.06,,2013-01-24 21:52:00,
2013-01-24 14:02:00,52.0,51.0,30.10,East,80,4.0,6.0,97,0.01,,,0.06,,2013-01-24 22:02:00,
2013-01-24 14:11:00,52.0,51.0,30.10,East,80,4.0,6.0,97,0.01,,,0.06,,2013-01-24 22:11:00,
2013-01-24 14:21:00,51.0,50.0,30.09,East,87,4.0,6.0,97,0.01,,,0.06,,2013-01-24 22:21:00,
2013-01-24 14:31:00,51.0,50.0,30.09,ESE,104,5.0,7.0,97,0.01,,,0.06,,2013-01-24 22:31:00,
2013-01-24 14:41:00,51.0,50.0,30.09,ESE,104,5.0,7.0,97,0.01,,,0.06,,2013-01-24 22:41:00,
2013-01-24 14:52:00,52.0,51.0,30.09,ESE,103,5.0,7.0,97,0.00,,,0.06,,2013-01-24 22:52:00,
2013-01-24 15:01:00,52.0,51.0,30.09,East,88,5.0,8.0,95,0.00,,,0.06,,2013-01-24 23:01:00,
2013-01-24 15:11:00,52.0,51.0,30.09,East,88,5.0,8.0,95,0.00,,,0.06,,2013-01-24 23:11:00,
2013-01-24 15:21:00,53.0,49.0,30.09,ENE,78,5.0,10.0,86,0.00,,,0.06,,2013-01-24 23:21:00,
2013-01-24 15:31:00,52.0,47.0,30.10,East,87,5.0,8.0,83,0.00,,,0.06,,2013-01-24 23:31:00,
2013-01-24 15:42:00,52.0,47.0,30.10,East,87,5.0,8.0,83,0.00,,,0.06,,2013-01-24 23:42:00,
2013-01-24 15:52:00,52.0,46.0,30.11,East,79,5.0,7.0,81,0.00,,,0.06,,2013-01-24 23:52:00,
2013-01-24 16:01:00,53.0,47.0,30.12,East,95,5.0,7.0,79,0.00,,,0.06,,2013-01-25 00:01:00,
2013-01-24 16:11:00,53.0,47.0,30.12,East,95,5.0,7.0,79,0.00,,,0.06,,2013-01-25 00:11:00,
2013-01-24 16:21:00,52.0,45.0,30.12,East,93,2.0,7.0,78,0.00,,,0.06,,2013-01-25 00:21:00,
2013-01-24 16:31:00,52.0,45.0,30.13,East,93,3.0,5.0,77,0.00,,,0.06,,2013-01-25 00:31:00,
2013-01-24 16:41:00,52.0,45.0,30.13,East,93,3.0,5.0,77,0.00,,,0.06,,2013-01-25 00:41:00,
2013-01-24 16:52:00,51.0,45.0,30.12,ENE,67,2.0,7.0,80,0.00,,,0.06,,2013-01-25 00:52:00,
2013-01-24 17:01:00,50.0,44.0,30.13,East,79,4.0,6.0,81,0.00,,,0.06,,2013-01-25 01:01:00,
2013-01-24 17:11:00,49.0,44.0,30.12,East,87,2.0,4.0,82,0.00,,,0.06,,2013-01-25 01:11:00,
2013-01-24 17:21:00,49.0,44.0,30.12,East,87,2.0,4.0,82,0.00,,,0.06,,2013-01-25 01:21:00,
2013-01-24 17:31:00,48.0,43.0,30.13,ESE,107,4.0,7.0,82,0.00,,,0.06,,2013-01-25 01:31:00,
2013-01-24 17:41:00,48.0,43.0,30.13,ESE,107,4.0,7.0,82,0.00,,,0.06,,2013-01-25 01:41:00,
2013-01-24 17:52:00,48.0,43.0,30.14,ESE,110,2.0,7.0,82,0.00,,,0.06,,2013-01-25 01:52:00,
2013-01-24 18:01:00,47.0,42.0,30.15,ESE,112,3.0,7.0,83,0.00,,,0.06,,2013-01-25 02:01:00,
2013-01-24 18:11:00,47.0,42.0,30.15,ESE,112,3.0,7.0,83,0.00,,,0.06,,2013-01-25 02:11:00,
2013-01-24 18:21:00,48.0,43.0,30.12,East,93,5.0,8.0,82,0.00,,,0.06,,2013-01-25 02:21:00,
2013-01-24 18:31:00,48.0,42.0,30.12,East,89,4.0,7.0,81,0.00,,,0.06,,2013-01-25 02:31:00,
2013-01-24 18:41:00,48.0,42.0,30.13,East,92,6.0,8.0,81,0.00,,,0.06,,2013-01-25 02:41:00,
2013-01-24 18:52:00,48.0,42.0,30.13,East,92,6.0,8.0,81,0.00,,,0.06,,2013-01-25 02:52:00,
2013-01-24 19:01:00,48.0,42.0,30.13,East,86,5.0,8.0,81,0.00,,,0.06,,2013-01-25 03:01:00,
2013-01-24 19:11:00,48.0,42.0,30.13,East,90,5.0,8.0,81,0.00,,,0.06,,2013-01-25 03:11:00,
2013-01-24 19:21:00,48.0,42.0,30.13,East,90,5.0,8.0,81,0.00,,,0.06,,2013-01-25 03:21:00,
2013-01-24 19:32:00,48.0,42.0,30.14,ENE,74,7.0,10.0,80,0.00,,,0.06,,2013-01-25 03:32:00,
2013-01-24 19:41:00,48.0,42.0,30.14,ENE,74,7.0,10.0,80,0.00,,,0.06,,2013-01-25 03:41:00,
2013-01-24 19:52:00,48.0,42.0,30.14,East,80,7.0,10.0,79,0.00,,,0.06,,2013-01-25 03:52:00,
2013-01-24 20:01:00,48.0,42.0,30.14,East,82,5.0,10.0,79,0.00,,,0.06,,2013-01-25 04:01:00,
2013-01-24 20:11:00,48.0,43.0,30.14,East,100,5.0,10.0,82,0.00,,,0.06,,2013-01-25 04:11:00,
2013-01-24 20:22:00,48.0,43.0,30.14,East,100,5.0,10.0,82,0.00,,,0.06,,2013-01-25 04:22:00,
2013-01-24 20:31:00,47.0,43.0,30.14,East,95,3.0,8.0,86,0.00,,,0.06,,2013-01-25 04:31:00,
2013-01-24 20:41:00,47.0,43.0,30.14,East,95,3.0,8.0,86,0.00,,,0.06,,2013-01-25 04:41:00,
2013-01-24 20:51:00,47.0,43.0,30.14,East,95,4.0,7.0,86,0.00,,,0.06,,2013-01-25 04:51:00,
2013-01-24 21:03:00,47.0,43.0,30.14,East,91,3.0,6.0,87,0.00,,,0.06,,2013-01-25 05:03:00,
2013-01-24 21:12:00,47.0,42.0,30.16,East,88,5.0,8.0,84,0.00,,,0.06,,2013-01-25 05:12:00,
2013-01-24 21:22:00,47.0,42.0,30.16,East,88,5.0,8.0,84,0.00,,,0.06,,2013-01-25 05:22:00,
2013-01-24 21:31:00,47.0,43.0,30.16,East,95,4.0,6.0,85,0.00,,,0.06,,2013-01-25 05:31:00,
2013-01-24 21:42:00,47.0,43.0,30.16,East,95,4.0,6.0,85,0.00,,,0.06,,2013-01-25 05:42:00,
2013-01-24 21:52:00,47.0,42.0,30.16,East,87,4.0,7.0,84,0.00,,,0.06,,2013-01-25 05:52:00,
2013-01-24 22:01:00,47.0,42.0,30.16,East,97,6.0,8.0,83,0.00,,,0.06,,2013-01-25 06:01:00,
2013-01-24 22:11:00,47.0,42.0,30.16,East,97,6.0,8.0,83,0.00,,,0.06,,2013-01-25 06:11:00,
2013-01-24 22:21:00,47.0,42.0,30.16,East,83,4.0,8.0,83,0.00,,,0.06,,2013-01-25 06:21:00,
2013-01-24 22:31:00,47.0,42.0,30.16,ENE,64,6.0,8.0,82,0.00,,,0.06,,2013-01-25 06:31:00,
2013-01-24 22:41:00,47.0,42.0,30.17,ENE,77,1.0,8.0,84,0.00,,,0.06,,2013-01-25 06:41:00,
2013-01-24 22:52:00,47.0,42.0,30.17,ENE,77,1.0,8.0,84,0.00,,,0.06,,2013-01-25 06:52:00,
2013-01-24 23:01:00,47.0,43.0,30.16,ENE,65,5.0,8.0,86,0.01,,,0.07,,2013-01-25 07:01:00,
2013-01-24 23:11:00,46.0,43.0,30.16,ENE,65,6.0,8.0,88,0.01,,,0.07,,2013-01-25 07:11:00,
2013-01-24 23:21:00,46.0,43.0,30.16,ENE,65,6.0,8.0,88,0.01,,,0.07,,2013-01-25 07:21:00,
2013-01-24 23:31:00,46.0,43.0,30.16,ENE,65,5.0,8.0,88,0.01,,,0.07,,2013-01-25 07:31:00,
2013-01-24 23:41:00,47.0,43.0,30.16,ENE,76,5.0,10.0,87,0.01,,,0.07,,2013-01-25 07:41:00,
2013-01-24 23:51:00,47.0,43.0,30.16,ENE,76,5.0,10.0,87,0.01,,,0.07,,2013-01-25 07:51:00,